This demonstration page uses our WeatherBlox Daily Observations layout. Learn more.

Left ArrowRight Arrow

31.84235, -102.49876

Hourly Observations for March 11, 2017

Temp ( °F °C ) Dew Point ( °F °C ) Humidity (%) Winds ( mph kmh ) Pressure ( in mb ) Visibility ( mi km ) Precip ( " mm )
12:41 am 00:41 Mostly Cloudy 53 11.7 44 6.7 72 72 Calm 30.06 1018 10 16 0.00 0.00
12:53 am 00:53 Partly Cloudy 52 11.1 44 6.7 75 75 ENE 5 7 30.04 1017 10 16 0.00 0.00
1:11 am 01:11 Mostly Cloudy 52 11.1 44 6.7 75 75 E 8 13 30.09 1019 10 16 0.00 0.00
1:53 am 01:53 Cloudy 54 12.2 46 7.8 75 75 ESE 7 11 30.03 1017 10 16 0.00 0.00
2:53 am 02:53 Cloudy 58 14.4 50 10 75 75 SE 9 15 30.00 1016 10 16 0.00 0.00
3:45 am 03:45 Partly Cloudy 57 13.9 51 10.6 81 81 SSE 9 15 30.06 1018 10 16 0.00 0.00
3:53 am 03:53 Mostly Clear 57 13.9 51 10.6 81 81 SSE 8 13 29.98 1015 10 16 0.00 0.00
4:20 am 04:20 Partly Cloudy 57 13.9 52 11.1 83 83 SSE 8 13 30.06 1018 10 16 0.00 0.00
4:29 am 04:29 Mostly Cloudy 58 14.4 54 12.2 87 87 S 12 19 30.00 1016 10 16 0.00 0.00
4:38 am 04:38 Cloudy 58 14.4 53 11.7 84 84 S 12 19 30.00 1016 10 16 0.00 0.00
4:53 am 04:53 Cloudy 58 14.4 53 11.7 84 84 S 13 20 29.97 1015 10 16 0.00 0.00
5:31 am 05:31 Cloudy 58 14.4 53 11.7 84 84 SSW 12 19 30.00 1016 10 16 0.00 0.00
5:53 am 05:53 Cloudy 58 14.4 53 11.7 84 84 S 10 17 29.96 1015 10 16 0.00 0.00
6:53 am 06:53 Cloudy 58 14.4 53 11.7 84 84 S 10 17 29.97 1015 10 16 0.00 0.00
7:53 am 07:53 Cloudy 58 14.4 53 11.7 84 84 S 13 20 29.99 1016 10 16 0.00 0.00
8:53 am 08:53 Cloudy 60 15.6 53 11.7 78 78 S 14 22 30.00 1016 10 16 0.00 0.00
9:05 am 09:05 Sunny 61 16.1 53 11.7 75 75 S 13 20 30.03 1017 10 16 0.00 0.00
9:53 am 09:53 Mostly Sunny 64 17.8 53 11.7 68 68 SSE 13 20 30.01 1016 10 16 0.00 0.00
10:53 am 10:53 Sunny 68 20 53 11.7 59 59 S 12 19 30.00 1016 10 16 0.00 0.00
11:53 am 11:53 Sunny 72 22.2 53 11.7 52 52 S 10 17 29.98 1015 10 16 0.00 0.00
12:53 pm 12:53 Sunny 75 23.9 52 11.1 45 45 SE 14 22 29.96 1014 10 16 0.00 0.00
1:53 pm 13:53 Sunny 77 25 49 9.4 37 37 undefined N/A 29.93 1013 10 16 0.00 0.00
2:53 pm 14:53 Sunny 80 26.7 47 8.3 31 31 SSE 9 15 29.89 1012 10 16 0.00 0.00
3:53 pm 15:53 Sunny 81 27.2 46 7.8 29 29 VRB 6 9 29.89 1012 10 16 0.00 0.00
4:53 pm 16:53 Sunny 81 27.2 47 8.3 30 30 E 15 24 29.89 1012 10 16 0.00 0.00
5:50 pm 17:50 Partly Cloudy with Thunderstorms 73 23 52 11 47 47 E 21 33 29.88 1012 10 16 0.00 0.00
5:53 pm 17:53 Partly Cloudy with Thunderstorms 74 23.3 51 10.6 45 45 E 24 39 29.92 1013 10 16 0.00 0.00
6:05 pm 18:05 Sunny 71 21.7 51 10.6 49 49 ENE 28 44 29.91 1013 8 13 0.00 0.00
6:53 pm 18:53 Hazy 62 16.7 47 8.3 58 58 ENE 37 59 30.01 1016 4 6 0.00 0.00
7:53 pm 19:53 Clear 57 13.9 46 7.8 67 67 ENE 29 46 30.09 1019 10 16 0.00 0.00
8:18 pm 20:18 Mostly Clear with Nearby Thunderstorms 53 11.7 42 5.6 66 66 NE 30 48 30.18 1022 9 14 0.00 0.00
8:33 pm 20:33 Mostly Clear with Thunderstorms 52 11.1 42 5.6 69 69 NNE 21 33 30.21 1023 10 16 0.00 0.00
8:44 pm 20:44 Mostly Clear with Strong Thunderstorms 49 9.4 44 6.7 83 83 NNW 14 22 30.27 1025 3 4 0.12 3.05
8:53 pm 20:53 Mostly Clear with Strong Thunderstorms 49 9.4 45 7.2 86 86 NNE 12 19 30.17 1022 3 5 0.19 4.83
9:08 pm 21:08 Mostly Clear with Strong Thunderstorms 47 8.3 44 6.7 90 90 ENE 17 28 30.27 1025 2 2 0.30 7.62
9:23 pm 21:23 Mostly Clear with Thunderstorms 48 8.9 46 7.8 93 93 N 12 19 30.30 1026 3 5 0.33 8.38
9:53 pm 21:53 Mostly Clear with Nearby Thunderstorms 48 8.9 46 7.8 93 93 NNE 10 17 30.26 1025 10 16 0.34 8.64
10:00 pm 22:00 Mostly Clear with Light Rain 48 8.9 46 7.8 93 93 NE 12 19 30.33 1027 10 16 0.00 0.03
10:10 pm 22:10 Mostly Clear with Nearby Thunderstorms 48 8.9 45 7.2 89 89 ENE 16 26 30.30 1026 10 16 0.00 0.03
10:45 pm 22:45 Clear 48 8.9 45 7.2 89 89 E 15 24 30.30 1026 10 16 0.01 0.25
10:53 pm 22:53 Clear 47 8.3 44 6.7 90 90 E 25 41 30.17 1022 10 16 0.01 0.25
11:53 pm 23:53 Clear 46 7.8 43 6.1 89 89 ENE 21 33 30.20 1023 10 16 0.00 0.00

Powered by AerisWeather